Regional Weather Roundup
Issued by NWS

Home | Current Version | Previous Version | Text Only | Print | Product List | Glossary On
Versions: 1 2 3 4 5 6 7 8 9 10 11 12 13 14 15 16 17 18 19 20 21 22 23 24 25 26 27 28 29 30 31 32 33 34 35 36 37 38 39 40 41 42 43 44 45 46 47 48 49 50
000
ASUS45 KBOI 300710
RWRID

IDAHO REGIONAL WEATHER ROUNDUP
NATIONAL WEATHER SERVICE BOISE ID
100 AM MDT THU JUL 30 2015

NOTE: "FAIR" INDICATES FEW OR NO CLOUDS BELOW 12000 FEET
WITH NO SIGNIFICANT WEATHER AND/OR OBSTRUCTIONS TO VISIBILITY

IDZ012-014-300800-
SOUTHWEST IDAHO


CITY           SKY/WX    TMP DP  RH WIND       PRES   REMARKS
BOISE          CLEAR     67  36  31 SE7       30.16R
CALDWELL       CLEAR     63  39  42 CALM      30.16R
MOUNTAIN HOME  CLEAR     63  33  32 NW6       30.16R
$$

IDZ016-017-300800-
SOUTHCENTRAL IDAHO


CITY           SKY/WX    TMP DP  RH WIND       PRES   REMARKS
BURLEY         CLEAR     55  42  61 CALM      30.24R
JEROME         CLEAR     59  37  44 E8        30.24R
TWIN FALLS     CLEAR     63  30  28 S8        30.21R
$$

IDZ019>023-300800-
SOUTHEAST IDAHO


CITY           SKY/WX    TMP DP  RH WIND       PRES   REMARKS
IDAHO FALLS    CLEAR     49  42  77 N3        30.30R
POCATELLO      CLEAR     53  39  59 N3        30.28R
REXBURG        CLEAR     52  43  71 CALM      30.33R
$$

IDZ006-010-011-018-031-032-300800-
CENTRAL IDAHO MOUNTAINS


CITY           SKY/WX    TMP DP  RH WIND       PRES   REMARKS
MCCALL         NOT AVBL
HAILEY         CLEAR     54  37  54 NW9       30.35R
STANLEY          N/A     45  33  63 S5        30.42R
SALMON         CLEAR     57  45  62 CALM      30.27R
CHALLIS        CLEAR     60  41  49 CALM      30.31R
$$

IDZ002-004-006-007-026-300800-
NORTHERN IDAHO


CITY           SKY/WX    TMP DP  RH WIND       PRES   REMARKS
LEWISTON       CLEAR     72  32  23 S5        30.10R
LOWELL           N/A     60  51  72 NW5       30.20R
COEUR D`ALENE  CLEAR     64  43  45 SE3       30.14S
MULLAN PASS    CLEAR     59  28  30 NW3       30.36S
$$



USA.gov is the U.S. government's official web portal to all federal, state and local government web resources and services.